Location: G�kdere
(37.0328°N, 30.9000°E)
Time: 05:12:11
(UTC+00:00)

Cosmos 2263 Rocket - Pass Details

Date: 03 March 2021
Orbit: 825 x 847 km, 71.0° (Epoch: 20 April)

Event Time Altitude Azimuth Distance (km) Brightness Sun altitude
Rises 16:08:08 0° 339° (NNW) 3,367 5.6 -3.9°
Reaches altitude 10° 16:10:34 10° 340° (NNW) 2,430 4.8 -4.4°
Maximum altitude 16:16:09 82° 68° (ENE) 839 2.2 -5.5°
Drops below altitude 10° 16:21:42 10° 156° (SSE) 2,422 4.4 -6.6°
Sets 16:24:08 0° 157° (SSE) 3,354 5.1 -7.1°
